Simultaneous Nadir Overpasses (SNOs) Predictions

Prediction of SNOs between NOAA-21 and PACE Satellite Orbit:

Table of predicted SNOs for the next 14.0 days since TLE Epoch: 8/17/2024
Index Date (NOAA-21) Time (NOAA-21) Lat,Lon (NOAA-21) SZA (NOAA-21 ) Date (PACE) Time (PACE) Lat,Lon (PACE) SZA (PACE ) Distance(km) Time Diff (sec)
1 08/17/2024 23:56:44 79.79, 143.86 69.00 08/17/2024 23:56:42 79.80, 143.84 69.01 0.68 2
2 08/20/2024 03:32:28 -79.91, -91.14 110.11 08/20/2024 03:33:17 -79.91, -91.12 110.14 0.45 49
3 08/20/2024 04:23:05 79.66, 78.46 69.46 08/20/2024 04:22:20 79.66, 78.39 69.49 1.47 45
4 08/22/2024 07:58:50 -79.82,-156.88 109.56 08/22/2024 07:58:55 -79.82,-156.89 109.56 0.50 5
5 08/24/2024 11:34:32 79.89, -31.45 71.28 08/24/2024 11:35:27 79.89, -31.52 71.26 1.38 55
6 08/24/2024 12:25:11 -79.70, 137.57 109.05 08/24/2024 12:24:31 -79.71, 137.50 109.02 1.48 40
7 08/26/2024 16:00:53 79.78, -97.07 71.83 08/26/2024 16:01:02 79.79, -97.22 71.85 3.17 9
8 08/28/2024 19:36:36 -79.90, 27.91 107.23 08/28/2024 19:37:32 -79.90, 27.84 107.25 1.47 56
9 08/28/2024 20:27:16 79.75,-163.36 72.52 08/28/2024 20:26:37 79.75,-163.30 72.53 1.17 39



Historial Predications of SNOs between NOAA-21 and PACE
